Startseite
Über Mich
AHP4
Galerie
Sehschlangen
Tourenbuch
Bookmarks
Elektronik
Bewertung
Geschichten
[Tagesmessung] [Jahreswerte] [Information]

Messwerte vom 25.03.2022

Die letzten Messwerte von 23:58:46 Uhr:
KategorieMesswert
Temperatur [°C]3
Luftdruck [mBar]1014
Sonneneinstrahlung0
Wind [km/h]0 aus Ost
Niederschlag [l/m²]0
rel.Luftfeucht.84.3%
CO2 [ppm]742

Diagramme
Messwerte vom 25.03.2022
Tagesaggregation
KategorieMinimumMaximumSchnittSumme
Temperatur [°C]-3207.0396
Luftdruck [mBar]101310161013.3271
Sonneneinstrahlung245110.6292
Wind [km/h]13
rF [%]33.987.564.27
Niederschlag [l/m²]0
CO2 [ppm]403752631.3
Einordnung alsFrosttag
Vegetationstag

Messungen an benachbarten Tagen: Zur Jahresaggregation 2022
Tabelle aller Messwerte
UhrzeitTemperatur [°C]Luftdruck [mBar]SonneWind [km/h]RichtungRegen [l/m²]rF [%]CO2 [ppm]
00:01:47 1 1013 0 0 SO 0 74.5 726
00:04:46 1 1013 0 0 SO 0 74.3 721
00:07:46 0 1013 0 0 N 0 74.6 723
00:10:47 0 1013 0 0 S 0 74.6 727
00:13:46 0 1013 0 0 NO 0 74.6 723
00:16:47 0 1013 0 0 S 0 75.1 718
00:19:45 0 1013 0 0 S 0 75 716
00:22:46 0 1013 0 0 S 0 74.9 715
00:25:44 0 1013 0 0 S 0 74.5 710
00:28:46 0 1013 0 0 S 0 74.4 703
00:31:46 0 1013 0 0 S 0 74.3 697
00:34:47 0 1013 0 1 NW 0 74.7 700
00:37:46 0 1013 0 0 NW 0 74.9 705
00:40:46 0 1013 0 0 NW 0 74.7 711
00:43:47 0 1013 0 0 NW 0 74.7 705
00:46:49 0 1013 0 0 NW 0 74.9 700
00:49:46 0 1013 0 0 NW 0 76.5 705
00:52:48 0 1013 0 0 SO 0 76.2 700
00:55:45 0 1013 0 0 SO 0 75.7 695
00:58:47 0 1013 0 0 SO 0 75.4 700
01:01:47 0 1013 0 0 SO 0 75.7 699
01:04:47 0 1013 0 0 SO 0 75.4 700
01:07:48 0 1013 0 0 SO 0 75 697
01:10:47 -1 1013 0 0 SO 0 75 694
01:13:46 -1 1013 0 0 SO 0 75.9 704
01:16:47 -1 1013 0 0 SO 0 75.8 700
01:19:46 -1 1013 0 0 SO 0 75.9 700
01:22:46 -1 1013 0 0 N 0 76.5 694
01:25:46 -1 1013 0 0 N 0 77.7 700
01:28:46 -1 1013 0 0 N 0 78.1 697
01:31:47 -1 1013 0 0 N 0 77.4 698
01:34:47 -1 1013 0 0 N 0 77.5 701
01:37:45 -1 1013 0 0 N 0 78.9 700
01:40:45 -1 1013 0 0 N 0 78.7 700
01:43:46 -1 1013 0 0 N 0 78.7 694
01:46:46 -1 1013 0 0 N 0 79.2 690
01:49:46 -1 1013 0 0 N 0 80.1 695
01:52:46 -1 1013 0 0 N 0 79.4 691
01:55:46 -1 1013 0 0 N 0 79.3 701
01:58:46 -1 1013 0 0 N 0 79.6 691
02:01:47 -2 1013 0 0 N 0 80 692
02:04:47 -2 1013 0 0 N 0 80 694
02:07:46 -2 1013 0 0 N 0 80.1 698
02:10:46 -2 1013 0 0 N 0 80.5 697
02:13:48 -2 1013 0 0 N 0 81 692
02:16:45 -2 1013 0 0 N 0 81 696
02:19:48 -2 1013 0 0 N 0 80.9 697
02:22:45 -2 1013 0 0 N 0 81 706
02:25:47 -2 1013 0 0 N 0 81.5 706
02:28:48 -2 1013 0 0 N 0 81.6 706
02:31:45 -2 1013 0 0 N 0 81.8 700
02:34:46 -2 1013 0 0 N 0 81.7 703
02:37:46 -2 1013 0 0 N 0 82.1 697
02:40:46 -2 1013 0 0 N 0 82.2 701
02:43:47 -2 1013 0 0 N 0 82.1 692
02:46:46 -2 1013 0 0 N 0 81.6 679
02:49:46 -2 1013 0 0 N 0 81.6 685
02:52:47 -2 1013 0 0 N 0 81.8 691
02:55:50 -2 1013 0 0 N 0 82 705
02:58:48 -2 1013 0 0 SO 0 82 693
03:01:49 -2 1013 0 0 SO 0 82.2 688
03:04:47 -2 1013 0 0 SO 0 82.4 682
03:07:48 -2 1013 0 0 NW 0 82.4 686
03:10:48 -2 1013 0 0 NO 0 84.5 686
03:13:48 -2 1013 0 0 SO 0 84.2 692
03:16:47 -2 1013 0 0 NW 0 83.5 695
03:19:49 -2 1013 0 0 SO 0 83.2 700
03:22:47 -2 1013 0 0 SO 0 83.3 696
03:25:50 -2 1013 0 0 SO 0 82.9 696
03:28:48 -2 1013 0 0 SO 0 82.7 692
03:31:50 -2 1013 0 0 SO 0 82.3 694
03:34:50 -2 1013 0 0 SO 0 82.3 688
03:37:50 -2 1013 0 0 SO 0 82.4 684
03:40:47 -2 1013 0 0 SO 0 82.4 685
03:43:47 -2 1013 0 0 SO 0 82.1 689
03:46:50 -2 1013 0 0 SO 0 82 688
03:49:48 -2 1013 0 0 SO 0 81.9 694
03:52:47 -2 1013 0 0 NW 0 82 686
03:55:48 -2 1013 0 0 NW 0 82.5 682
03:58:48 -2 1013 0 0 NW 0 82 685
04:01:50 -2 1013 0 0 NW 0 81.5 682
04:04:48 -2 1013 0 0 NW 0 81.5 679
04:07:49 -2 1013 0 0 NW 0 81.8 686
04:10:49 -2 1013 0 0 NW 0 82.1 685
04:13:48 -2 1013 0 0 NW 0 81.9 686
04:16:47 -2 1013 0 0 NW 0 81.6 679
04:19:48 -2 1013 0 0 NW 0 81.8 677
04:22:46 -2 1013 0 0 NW 0 81.7 679
04:25:48 -2 1013 0 0 NW 0 81.8 688
04:28:48 -2 1013 0 0 NW 0 82.3 689
04:31:48 -2 1013 0 0 NW 0 82.4 682
04:34:49 -2 1013 0 0 NW 0 83 676
04:37:48 -2 1013 0 0 NW 0 83.9 670
04:40:48 -2 1013 0 0 NW 0 83.9 670
04:43:47 -2 1013 0 0 NW 0 83.1 667
04:46:48 -2 1013 0 0 NW 0 82.8 677
04:49:48 -2 1013 0 0 NW 0 82.4 679
04:52:48 -2 1013 0 0 NW 0 82.6 685
04:55:50 -2 1013 0 0 NW 0 83.1 677
04:58:47 -2 1013 0 0 N 0 83.6 676
05:01:44 -2 1013 0 0 N 0 83.8 677
05:04:48 -2 1013 0 0 N 0 83.5 685
05:07:47 -2 1013 0 0 N 0 83.8 682
05:10:46 -2 1013 0 0 0 84.2 677
05:13:47 -2 1013 0 0 N 0 85.3 676
05:16:47 -2 1013 0 0 SO 0 85.6 671
05:19:47 -2 1013 0 0 N 0 85.4 670
05:22:48 -2 1013 0 0 NW 0 85.9 666
05:25:47 -2 1013 0 0 N 0 86.6 670
05:28:48 -2 1013 0 0 NO 0 86.2 670
05:31:48 -2 1013 0 0 NO 0 86.8 671
05:34:47 -2 1013 0 0 SW 0 86.4 674
05:37:47 -2 1013 0 1 NW 0 87.2 679
05:40:46 -2 1013 0 0 SO 0 87.5 674
05:43:45 -2 1013 3 0 N 0 87.4 677
05:46:46 -2 1013 5 0 SO 0 87.5 674
05:49:47 -2 1013 8 0 N 0 86.9 677
05:52:51 -2 1013 13 0 SO 0 86.7 668
05:55:48 -2 1013 20 0 NO 0 86.4 674
05:58:51 -2 1013 29 0 NO 0 86.4 679
06:01:48 -2 1013 39 0 S 0 86 680
06:04:47 -3 1013 51 0 S 0 85.8 685
06:07:49 -3 1013 63 0 S 0 85.8 679
06:10:49 -2 1013 76 0 NW 0 85.9 689
06:13:50 -3 1013 88 0 O 0 86.2 691
06:16:48 -2 1013 99 0 NW 0 86.3 690
06:19:50 -2 1013 109 0 SO 0 86.4 685
06:22:49 -2 1013 118 0 SO 0 86.1 683
06:25:48 -2 1013 127 0 SO 0 85.9 682
06:28:51 -2 1013 134 0 SO 0 85.9 683
06:31:48 -2 1013 140 0 SO 0 85.9 682
06:34:48 -2 1013 146 0 N 0 86.2 680
06:37:49 -2 1013 151 0 SO 0 86.7 685
06:40:49 -2 1013 156 0 NW 0 86.4 685
06:43:46 -2 1013 160 0 N 0 86.4 685
06:46:48 -2 1013 163 0 N 0 86.8 682
06:49:49 -2 1013 167 0 N 0 85.6 674
06:52:47 -2 1013 169 0 N 0 85.3 676
06:55:48 -2 1013 172 0 N 0 85.4 682
06:58:49 -2 1013 174 0 SO 0 85.8 689
07:01:49 -1 1013 176 0 NO 0 85.5 685
07:04:48 -1 1013 178 0 N 0 85.5 679
07:07:49 -1 1013 180 0 N 0 84.8 671
07:10:48 -1 1013 181 0 SO 0 84.4 668
07:13:48 -1 1013 183 0 NO 0 84.2 662
07:16:51 -1 1013 184 0 NO 0 84.4 663
07:19:47 -1 1013 185 0 NO 0 84.4 665
07:22:48 0 1013 186 0 NO 0 84.1 682
07:25:48 0 1013 187 0 NO 0 83.5 697
07:28:49 0 1013 187 0 NO 0 83.5 706
07:31:48 0 1013 188 0 NO 0 83.7 702
07:34:49 0 1013 189 0 NO 0 83.4 708
07:37:46 0 1013 190 0 NO 0 83.1 705
07:40:48 0 1013 191 0 NO 0 83 702
07:43:48 1 1013 191 0 NO 0 82.7 705
07:46:48 1 1013 192 0 NO 0 82.5 708
07:49:48 1 1013 193 0 NO 0 82.2 718
07:52:47 1 1013 193 0 NO 0 82.1 723
07:55:48 1 1013 194 0 NO 0 81.9 714
07:58:47 1 1013 194 0 NO 0 82 706
08:01:48 2 1013 195 0 NO 0 81.5 714
08:04:49 2 1014 195 1 NW 0 81.2 724
08:07:49 2 1013 196 0 NW 0 80.5 720
08:10:49 2 1013 196 0 SW 0 80.2 720
08:13:49 2 1013 196 1 NW 0 80.1 720
08:16:45 2 1014 197 0 S 0 80 721
08:19:48 3 1013 197 0 SW 0 79.9 729
08:22:47 3 1014 198 0 S 0 79.8 730
08:25:47 3 1013 198 1 W 0 79.3 730
08:28:48 3 1013 198 1 W 0 78.6 732
08:31:48 3 1013 199 0 SW 0 78.5 733
08:34:48 4 1013 199 1 NW 0 78.3 736
08:37:47 4 1013 200 0 W 0 78.1 735
08:40:48 4 1014 200 2 NW 0 77.7 743
08:43:47 4 1014 200 1 W 0 77.6 741
08:46:48 4 1014 201 2 SW 0 77.4 739
08:49:47 5 1014 201 2 SW 0 77.1 738
08:52:47 5 1014 202 0 S 0 76.8 737
08:55:46 5 1014 202 0 SW 0 76.4 735
08:58:48 5 1014 202 0 S 0 76 739
09:01:46 5 1014 202 1 0 75.7 733
09:04:49 5 1013 203 0 SW 0 75.6 743
09:07:49 6 1014 203 0 S 0 74.9 736
09:10:47 6 1014 204 0 S 0 74.4 744
09:13:48 6 1014 204 0 S 0 74.1 739
09:16:54 6 1014 204 3 SW 0 72.6 741
09:19:48 6 1014 205 1 S 0 72.4 741
09:22:46 7 1014 205 0 S 0 72 736
09:25:49 7 1014 206 2 SW 0 71.3 743
09:28:48 7 1015 206 2 S 0 70.3 750
09:31:49 7 1014 207 0 SW 0 69.3 752
09:34:48 8 1014 208 3 SW 0 68.9 746
09:37:50 8 1015 209 0 S 0 67.9 736
09:40:49 8 1015 209 3 NW 0 67.9 734
09:43:46 8 1014 173 1 S 0 67.2 668
09:46:48 8 1015 169 0 SO 0 66.2 407
09:49:50 9 1015 168 0 S 0 66.3 405
09:52:50 9 1014 169 0 NW 0 66.7 407
09:55:49 9 1015 211 0 W 0 65.2 405
09:58:46 9 1014 211 6 W 0 64.3 407
10:01:47 9 1015 211 0 W 0 64 430
10:04:50 10 1015 211 0 SW 0 63.7 419
10:07:50 10 1015 212 1 SO 0 63.1 405
10:10:47 10 1015 212 5 W 0 62.4 439
10:13:46 10 1015 213 0 S 0 60.8 448
10:16:49 11 1015 213 0 W 0 60.8 448
10:19:51 11 1015 213 3 SO 0 60.3 454
10:22:48 11 1014 213 0 S 0 59.1 456
10:25:48 11 1014 213 1 SW 0 56.4 462
10:28:49 11 1015 213 0 SO 0 55.5 472
10:31:49 12 1016 214 0 SW 0 55 475
10:34:47 12 1015 214 1 W 0 52.9 478
10:37:48 12 1014 214 1 SO 0 50.8 478
10:40:49 12 1015 214 0 S 0 49.7 482
10:43:47 12 1015 214 4 SO 0 50.3 480
10:46:48 13 1015 215 2 SW 0 50.7 479
10:49:49 13 1014 215 0 SW 0 49.9 485
10:52:47 13 1015 215 5 N 0 49 486
10:55:50 13 1015 216 4 NW 0 49.1 489
10:58:50 13 1014 215 2 NO 0 48.8 490
11:01:50 13 1014 215 0 S 0 48.1 488
11:04:50 13 1015 215 2 S 0 48.9 506
11:07:47 14 1015 216 3 S 0 49.2 515
11:10:49 14 1015 216 0 SO 0 46.6 521
11:13:46 14 1015 216 1 S 0 46.1 518
11:16:48 14 1015 216 3 SO 0 47.1 533
11:19:46 15 1014 216 2 S 0 47.5 545
11:22:49 15 1015 216 0 SO 0 46.8 547
11:25:48 15 1015 216 3 NW 0 46.8 553
11:28:49 15 1015 217 4 NW 0 43.5 559
11:31:46 15 1015 217 4 S 0 45.2 567
11:34:46 15 1014 218 1 N 0 43.8 580
11:37:48 15 1014 218 4 NO 0 42.9 600
11:40:49 15 1014 219 10 S 0 43.4 606
11:43:46 16 1014 219 2 S 0 44.2 632
11:46:48 16 1015 187 5 NW 0 42.4 633
11:49:49 16 1014 201 2 NO 0 42.4 428
11:52:48 16 1015 220 4 N 0 40.7 407
11:55:47 16 1015 212 7 NO 0 41.2 413
11:58:47 16 1014 213 3 O 0 41.8 418
12:01:49 16 1015 222 1 O 0 42.8 404
12:04:48 16 1014 223 1 N 0 42.9 433
12:07:51 16 1014 223 11 NW 0 41.8 545
12:10:51 16 1014 224 3 NW 0 41.1 560
12:13:46 17 1014 224 4 S 0 41.3 553
12:16:49 17 1015 224 2 W 0 41.1 564
12:19:51 17 1015 225 5 NW 0 40.3 566
12:22:49 16 1014 225 3 NW 0 39.7 577
12:25:49 16 1014 226 2 NW 0 39.8 593
12:28:49 17 1014 226 1 SW 0 40 606
12:31:50 17 1014 226 9 NW 0 40.6 599
12:34:48 17 1014 209 4 NW 0 40 597
12:37:49 17 1014 209 5 SO 0 38.6 541
12:40:49 17 1014 209 1 N 0 38.2 448
12:43:48 17 1014 210 3 N 0 38.2 430
12:46:49 17 1014 212 7 NW 0 38.4 419
12:49:49 17 1014 213 5 NW 0 38.6 406
12:52:46 17 1014 214 3 N 0 38.2 406
12:55:46 17 1014 215 2 O 0 37.5 407
12:58:47 18 1013 216 5 W 0 37.5 407
13:01:47 18 1013 217 9 NW 0 37.8 404
13:04:49 18 1014 218 4 NW 0 36 407
13:07:49 18 1014 218 7 S 0 37.5 407
13:10:49 18 1014 218 2 S 0 38.2 403
13:13:49 19 1014 218 3 NW 0 35.4 407
13:16:49 19 1013 214 0 NW 0 35.5 405
13:19:48 19 1014 214 8 NW 0 35.3 404
13:22:48 19 1014 215 2 NW 0 34.1 404
13:25:48 19 1013 216 0 NW 0 34.6 407
13:28:48 19 1014 216 1 NO 0 34.9 406
13:31:51 19 1014 217 13 NW 0 34.7 404
13:34:47 18 1013 217 3 O 0 34.3 405
13:37:49 19 1014 218 5 SW 0 37.1 403
13:40:47 19 1013 219 0 S 0 37.4 407
13:43:50 19 1013 219 2 SO 0 35.4 404
13:46:47 19 1013 234 0 NO 0 35.5 404
13:49:47 19 1014 236 5 SO 0 35.2 404
13:52:50 18 1013 236 8 NW 0 34 404
13:55:45 18 1013 237 3 N 0 37.4 406
13:58:47 18 1013 238 3 W 0 37.7 406
14:01:46 19 1014 242 1 S 0 36.3 404
14:04:48 19 1014 243 3 N 0 36.5 407
14:07:47 19 1014 244 0 NW 0 35.3 415
14:10:48 20 1013 243 5 NO 0 34.5 427
14:13:47 19 1013 244 2 S 0 33.9 430
14:16:47 18 1013 244 6 NW 0 34.1 433
14:19:46 18 1013 244 3 N 0 35.4 444
14:22:47 19 1013 244 1 O 0 36.5 448
14:25:46 20 1013 244 3 W 0 35.6 451
14:28:49 20 1014 245 7 N 0 34.5 453
14:31:49 19 1013 245 9 W 0 34.3 448
14:34:47 19 1013 245 4 W 0 35.2 454
14:37:48 18 1013 245 2 N 0 34.9 459
14:40:50 18 1013 245 7 NW 0 35 466
14:43:46 18 1013 245 6 O 0 35.8 471
14:46:50 18 1013 245 6 NO 0 36.5 477
14:49:49 18 1013 245 6 NW 0 36.6 483
14:52:46 18 1013 245 1 NO 0 36.1 492
14:55:45 18 1013 231 3 N 0 36.1 492
14:58:48 18 1013 245 6 NO 0 36.2 492
15:01:47 18 1013 245 2 N 0 36.3 491
15:04:46 18 1013 245 4 N 0 36.1 474
15:07:48 18 1013 245 5 SW 0 35.7 483
15:10:47 18 1013 245 3 NW 0 34.6 478
15:13:46 18 1013 245 11 N 0 35.1 495
15:16:48 18 1013 245 4 W 0 35.7 495
15:19:46 18 1013 245 2 O 0 35.5 504
15:22:47 18 1013 245 2 SO 0 36.1 515
15:25:47 18 1013 245 2 O 0 36.4 515
15:28:47 18 1013 245 5 NW 0 36.1 521
15:31:48 18 1013 245 6 NW 0 36.9 524
15:34:46 18 1013 245 3 O 0 36.5 524
15:37:50 17 1013 245 1 N 0 35.8 529
15:40:45 17 1013 245 2 N 0 36.1 557
15:43:45 17 1013 245 6 O 0 36.1 564
15:46:48 17 1013 245 4 NO 0 36.4 567
15:49:45 17 1013 245 1 N 0 36.3 574
15:52:45 18 1013 245 5 N 0 36.7 585
15:55:46 18 1013 245 5 N 0 37.6 586
15:58:48 18 1013 244 2 N 0 36.3 592
16:01:45 17 1013 244 3 N 0 36.6 594
16:04:46 18 1013 244 2 N 0 37.5 597
16:07:49 18 1013 244 6 NW 0 36.7 606
16:10:48 18 1013 244 2 S 0 36.4 611
16:13:47 18 1013 244 3 S 0 36.7 618
16:16:47 18 1013 244 8 NW 0 37.5 618
16:19:50 18 1013 244 2 SW 0 36.2 622
16:22:48 18 1013 244 5 NW 0 36.5 615
16:25:46 18 1013 243 1 N 0 36.3 627
16:28:48 18 1013 244 2 NW 0 36.6 623
16:31:47 18 1013 242 1 W 0 36.7 635
16:34:48 18 1013 241 4 N 0 36.4 638
16:37:46 18 1013 239 1 SO 0 35.5 643
16:40:47 18 1013 239 2 N 0 36.2 647
16:43:50 18 1013 240 3 NW 0 35.9 641
16:46:47 18 1013 243 0 S 0 36 649
16:49:47 17 1013 243 3 NW 0 35.5 647
16:52:48 17 1013 242 1 NW 0 35.5 654
16:55:47 17 1013 242 5 W 0 36.1 659
16:58:46 17 1013 241 6 N 0 37 672
17:01:47 17 1013 240 1 W 0 37.9 685
17:04:46 17 1013 234 4 N 0 37.4 692
17:07:49 16 1013 229 2 N 0 38 688
17:10:48 16 1013 237 2 NO 0 38.9 702
17:13:49 16 1013 236 1 O 0 39.1 706
17:16:47 16 1013 236 0 W 0 39 705
17:19:49 16 1013 233 1 SO 0 38.9 715
17:22:50 16 1013 229 0 0 38.9 729
17:25:47 16 1013 226 1 N 0 39.3 738
17:28:47 16 1013 225 1 S 0 39.8 732
17:31:47 16 1013 224 0 NO 0 40.5 735
17:34:47 16 1013 223 2 O 0 41 726
17:37:46 15 1013 222 0 NO 0 41.1 720
17:40:47 15 1013 220 0 N 0 41.4 718
17:43:46 15 1013 219 1 NO 0 41.6 718
17:46:47 15 1013 220 0 N 0 42 723
17:49:46 15 1013 220 0 N 0 42.4 715
17:52:47 15 1013 212 1 NW 0 42.9 712
17:55:46 15 1013 208 0 N 0 43.3 709
17:58:47 15 1013 204 0 N 0 43.8 709
18:01:47 14 1013 201 0 N 0 44.2 709
18:04:46 14 1013 128 0 N 0 44.7 674
18:07:46 14 1013 190 0 N 0 44.8 431
18:10:47 14 1013 183 0 N 0 45.3 434
18:13:46 13 1013 173 0 N 0 46.1 510
18:16:46 13 1013 164 0 N 0 46.7 566
18:19:47 13 1013 157 0 N 0 47.8 585
18:22:49 12 1013 153 0 N 0 48.5 589
18:25:49 12 1013 145 0 N 0 48.9 586
18:28:48 12 1013 136 0 N 0 49.3 586
18:31:49 11 1013 128 0 N 0 51 589
18:34:47 11 1013 117 0 N 0 51.4 596
18:37:48 11 1013 104 0 N 0 52.3 593
18:40:47 11 1013 90 0 0 53 592
18:43:48 10 1013 76 0 N 0 53.3 592
18:46:48 10 1013 62 0 N 0 53.3 606
18:49:47 10 1013 49 0 N 0 54.3 609
18:52:46 10 1013 36 0 N 0 55.1 618
18:55:46 10 1013 24 0 N 0 56 618
18:58:45 10 1013 15 0 N 0 56.3 626
19:01:46 9 1013 9 0 N 0 57 628
19:04:46 9 1013 6 0 N 0 57.2 630
19:07:47 9 1013 3 0 N 0 58.5 633
19:10:47 9 1013 0 0 N 0 58.8 633
19:13:46 9 1013 0 0 N 0 59.1 637
19:16:47 9 1013 0 0 N 0 60.6 641
19:19:46 9 1013 0 0 N 0 60.6 648
19:22:46 8 1013 0 0 N 0 60.5 650
19:25:46 8 1013 0 0 N 0 60.8 659
19:28:45 8 1013 0 0 N 0 61.3 655
19:31:46 8 1013 0 0 N 0 61.5 653
19:34:45 8 1013 0 0 N 0 62.1 651
19:37:46 8 1013 0 0 N 0 62.9 653
19:40:44 8 1013 0 0 N 0 63.4 650
19:43:46 8 1013 0 0 N 0 62.9 650
19:46:45 8 1013 0 0 N 0 63.6 647
19:49:45 7 1013 0 0 N 0 63.9 650
19:52:47 7 1013 0 0 N 0 64.4 648
19:55:46 7 1013 0 0 N 0 65.3 639
19:58:45 7 1013 0 0 N 0 65.9 635
20:01:44 7 1013 0 0 N 0 65.7 644
20:04:47 7 1013 0 0 N 0 65.8 637
20:07:46 7 1013 0 0 N 0 66.8 627
20:10:32 6 1013 0 0 N 0 58.3 619
20:13:46 7 1013 0 0 N 0 66.7 624
20:16:46 7 1013 0 0 N 0 67.2 620
20:19:50 7 1013 0 0 W 0 68.2 624
20:22:46 7 1013 0 0 W 0 69 627
20:25:47 7 1013 0 0 W 0 68.5 633
20:28:48 6 1013 0 0 W 0 68.1 639
20:31:50 6 1013 0 0 W 0 68.6 642
20:34:47 6 1013 0 0 W 0 68.7 644
20:37:46 6 1013 0 0 W 0 69 647
20:40:46 6 1013 0 0 W 0 69.3 644
20:43:46 6 1013 0 0 W 0 69.7 647
20:46:46 6 1013 0 0 W 0 70 661
20:49:46 6 1013 0 0 W 0 69.7 667
20:52:45 5 1013 0 0 W 0 70.3 670
20:55:47 6 1013 0 0 W 0 71.2 668
20:58:45 6 1013 0 0 W 0 71.6 670
21:01:46 6 1013 0 0 W 0 72.3 677
21:04:46 6 1013 0 0 W 0 72.2 674
21:07:45 5 1013 0 0 W 0 72.5 674
21:10:47 5 1013 0 0 W 0 72.4 676
21:13:45 5 1013 0 0 S 0 72.3 673
21:16:44 5 1013 0 0 S 0 72.9 677
21:19:43 5 1013 0 0 S 0 73.5 674
21:22:44 5 1013 0 0 S 0 74.5 676
21:25:45 5 1013 0 0 S 0 73.9 688
21:28:46 5 1013 0 0 S 0 74.4 696
21:31:48 5 1013 0 0 S 0 74.8 696
21:34:45 5 1013 0 0 S 0 74.7 699
21:37:46 5 1013 0 0 S 0 74.7 697
21:40:46 5 1013 0 0 S 0 75.8 700
21:43:47 5 1013 0 0 SO 0 76.2 697
21:46:46 5 1013 0 0 SO 0 76.6 702
21:49:46 4 1013 0 0 SO 0 75.9 702
21:52:49 4 1013 0 0 SO 0 76 709
21:55:46 4 1013 0 0 SO 0 76.2 711
21:58:46 4 1013 0 0 SO 0 76.6 703
22:01:48 4 1013 0 0 SO 0 77.5 709
22:04:46 4 1013 0 0 SO 0 77.8 713
22:07:48 4 1013 0 0 SO 0 77 709
22:10:46 4 1013 0 0 SO 0 76.8 707
22:13:48 4 1013 0 0 SO 0 76.8 703
22:16:47 4 1013 0 0 SO 0 77.4 708
22:19:47 4 1013 0 0 NO 0 78.4 707
22:22:46 4 1014 0 0 SW 0 79.4 706
22:25:44 4 1014 0 0 S 0 79.1 705
22:28:45 4 1014 0 0 S 0 78.6 717
22:31:48 4 1013 0 0 S 0 79 712
22:34:47 4 1013 0 0 S 0 79.1 715
22:37:47 4 1013 0 0 S 0 79.1 721
22:40:46 3 1014 0 0 S 0 78.8 729
22:43:46 3 1014 0 0 S 0 78.9 726
22:46:45 3 1014 0 0 S 0 79.1 727
22:49:46 3 1013 0 0 S 0 79.5 726
22:52:44 3 1013 0 0 S 0 79.7 727
22:55:46 3 1014 0 0 S 0 79.7 723
22:58:46 3 1014 0 0 S 0 80.1 727
23:01:46 3 1014 0 0 S 0 80.1 721
23:04:46 3 1014 0 0 S 0 80.1 735
23:07:48 3 1014 0 0 S 0 80.4 741
23:10:45 3 1013 0 0 S 0 80.6 739
23:13:45 3 1014 0 0 S 0 80.4 736
23:16:47 3 1014 0 0 S 0 80.6 744
23:19:44 3 1013 0 0 S 0 81 752
23:22:46 3 1013 0 0 S 0 80.9 751
23:25:46 3 1013 0 0 NO 0 81 746
23:28:46 3 1013 0 0 NO 0 81.4 747
23:31:48 3 1013 0 0 NO 0 81.5 746
23:34:49 3 1013 0 0 NO 0 82 750
23:37:48 3 1013 0 0 NO 0 82.5 747
23:40:46 3 1014 0 0 S 0 82.3 741
23:43:45 3 1014 0 0 S 0 82.4 732
23:46:47 3 1014 0 0 S 0 82.4 733
23:49:45 3 1013 0 0 S 0 82.7 729
23:52:48 3 1013 0 0 NW 0 83.7 733
23:55:49 3 1014 0 0 NW 0 84.5 732
23:58:46 3 1014 0 0 O 0 84.3 742

Letzte Änderung : 22-Jul-2022
Copyright Jens Köhler, Wolfsburg, Obere Dorfstraße 10d